CW4038 Weather Reports


Display with metric or nautical units.
time (UTC)temp
F
wind
direction
speed
MPH
gust
MPH
rain 1hr
in
rain 24hr
in
rain mn
in
humidity
%
barometer
mb
20180223200152 49 353 3.0 7.0 0.00 0.02 0.01 55 1026.8
20180223195251 48 356 2.0 7.0 0.00 0.02 0.01 57 1027.1
20180223194350 47 343 2.0 9.0 0.00 0.02 0.01 58 1027.1
20180223193450 48 355 3.0 9.0 0.00 0.02 0.01 57 1027.1
20180223192549 48 357 2.0 8.0 0.00 0.02 0.01 57 1027.1
20180223191648 47 350 2.0 9.0 0.00 0.02 0.01 59 1027.1
20180223190746 47 5 2.0 10.0 0.00 0.02 0.01 61 1027.5
20180223185845 47 356 2.0 6.0 0.00 0.02 0.01 61 1027.5
20180223184944 47 10 2.0 7.0 0.00 0.02 0.01 62 1027.5
20180223184043 46 43 2.0 6.0 0.00 0.02 0.01 62 1027.4
20180223183143 46 357 2.0 4.0 0.00 0.02 0.01 62 1027.5
20180223182241 46 332 2.0 5.0 0.00 0.02 0.01 63 1027.5
20180223181340 46 350 2.0 6.0 0.00 0.02 0.01 65 1027.1
20180223180440 45 354 2.0 6.0 0.00 0.02 0.01 66 1027.1
20180223175538 44 1 1.0 4.0 0.00 0.02 0.01 67 1027.1
20180223174638 44 343 2.0 4.0 0.00 0.02 0.01 67 1027.1
20180223173736 44 13 1.0 6.0 0.00 0.02 0.01 68 1027.1
20180223172835 44 5 2.0 6.0 0.00 0.02 0.01 68 1026.8
20180223171935 43 9 3.0 4.0 0.00 0.02 0.01 69 1026.8
20180223171034 43 350 3.0 4.0 0.00 0.02 0.01 70 1026.8
20180223170134 43 34 1.0 5.0 0.00 0.02 0.01 71 1026.8
20180223165232 42 355 2.0 5.0 0.00 0.02 0.01 71 1026.8
20180223164331 42 348 1.0 4.0 0.00 0.02 0.01 72 1026.4
20180223163431 42 345 1.0 4.0 0.00 0.02 0.01 72 1026.4
20180223162530 42 321 2.0 3.0 0.00 0.02 0.01 73 1026.4
20180223161629 42 8 1.0 2.0 0.00 0.02 0.01 73 1026.1
20180223160728 42 27 1.0 2.0 0.00 0.02 0.01 73 1026.1
20180223155827 42 15 0.0 2.0 0.00 0.02 0.01 73 1025.7
20180223154925 41 311 1.0 2.0 0.00 0.02 0.01 75 1025.7
20180223154024 40 7 2.0 2.0 0.00 0.02 0.01 78 1025.4
20180223153123 39 280 1.0 1.0 0.00 0.02 0.01 78 1025.4
20180223152222 38 332 0.0 1.0 0.00 0.02 0.01 80 1025.0
20180223151321 38 332 0.0 1.0 0.00 0.02 0.01 80 1025.0
20180223150420 37 332 1.0 1.0 0.00 0.02 0.01 80 1025.0
20180223145519 38 332 0.0 0.0 0.00 0.02 0.01 79 1024.7
20180223144618 38 332 0.0 2.0 0.00 0.02 0.01 78 1024.7
20180223143717 38 332 0.0 2.0 0.00 0.02 0.01 77 1024.7
20180223142816 39 329 0.0 1.0 0.00 0.02 0.01 77 1024.7
20180223141915 39 342 0.0 1.0 0.00 0.02 0.01 76 1024.4
20180223141015 39 290 0.0 1.0 0.00 0.02 0.01 76 1024.4
20180223140113 39 11 0.0 2.0 0.00 0.02 0.01 76 1024.4
20180223135213 39 337 1.0 2.0 0.00 0.02 0.01 76 1024.4
20180223134312 39 321 0.0 2.0 0.00 0.02 0.01 76 1024.1
20180223133411 39 342 1.0 2.0 0.00 0.02 0.01 76 1024.1
20180223132510 39 307 0.0 1.0 0.00 0.02 0.01 75 1024.1
20180223131610 39 307 0.0 1.0 0.00 0.02 0.01 74 1024.1
20180223130710 39 323 1.0 1.0 0.00 0.02 0.01 74 1024.1
20180223125808 40 321 0.0 1.0 0.00 0.02 0.01 73 1024.1
20180223124907 40 316 0.0 3.0 0.00 0.02 0.01 72 1023.8
20180223124006 41 326 1.0 4.0 0.00 0.02 0.01 72 1023.8
20180223123106 41 331 2.0 4.0 0.00 0.02 0.01 72 1023.9
20180223122205 41 347 1.0 1.0 0.00 0.02 0.01 74 1023.8
20180223121303 41 360 0.0 1.0 0.00 0.02 0.01 73 1023.5
20180223120403 41 329 0.0 1.0 0.00 0.02 0.01 74 1023.5
20180223115502 41 320 0.0 1.0 0.00 0.02 0.01 75 1023.5
20180223114601 41 320 0.0 1.0 0.00 0.02 0.01 75 1023.5
20180223113701 41 316 0.0 1.0 0.00 0.02 0.01 75 1023.5
20180223112800 41 314 1.0 1.0 0.00 0.02 0.01 75 1023.5
20180223111859 41 306 0.0 1.0 0.00 0.02 0.01 75 1023.5
20180223110958 40 311 0.0 1.0 0.00 0.02 0.01 76 1023.5
20180223110057 40 267 1.0 1.0 0.00 0.02 0.01 76 1023.2
20180223105156 41 333 0.0 3.0 0.00 0.02 0.01 76 1023.2
20180223104256 41 333 1.0 3.0 0.00 0.02 0.01 75 1023.2
20180223103354 41 301 1.0 3.0 0.00 0.02 0.01 75 1023.2
20180223102454 41 330 1.0 4.0 0.00 0.02 0.01 75 1023.2
20180223101552 41 0 1.0 4.0 0.00 0.02 0.01 74 1023.2
20180223100652 42 335 2.0 4.0 0.00 0.02 0.01 74 1023.2
20180223095751 42 330 2.0 4.0 0.00 0.02 0.01 73 1023.2
20180223094850 43 319 1.0 4.0 0.00 0.02 0.01 73 1023.2
20180223093949 43 311 1.0 5.0 0.00 0.02 0.01 73 1023.2
20180223093048 44 323 1.0 6.0 0.00 0.02 0.01 72 1023.2
20180223092148 44 330 2.0 5.0 0.00 0.02 0.01 72 1023.2
20180223091247 44 317 2.0 7.0 0.00 0.02 0.01 72 1023.2
20180223090346 44 333 3.0 7.0 0.01 0.02 0.01 71 1023.2
20180223085445 44 320 2.0 6.0 0.01 0.02 0.01 72 1022.9
20180223084543 44 326 2.0 4.0 0.02 0.02 0.01 73 1022.9
20180223083643 45 316 2.0 7.0 0.02 0.02 0.01 73 1022.9
20180223082742 45 320 2.0 7.0 0.02 0.02 0.01 73 1022.9
20180223081840 45 322 1.0 7.0 0.02 0.02 0.01 75 1022.9
20180223080940 45 317 1.0 7.0 0.02 0.02 0.01 76 1022.9
20180223080039 45 355 1.0 4.0 0.01 0.01 0.00 76 1022.9
20180223075138 46 8 1.0 6.0 0.01 0.01 0.01 71 1022.9
20180223074238 47 337 2.0 7.0 0.00 0.00 0.00 64 1022.9
20180223073337 47 4 2.0 7.0 0.00 0.00 0.00 64 1022.6
20180223072436 47 358 2.0 6.0 0.00 0.00 0.00 64 1022.6
20180223071535 47 336 3.0 7.0 0.00 0.00 0.00 64 1022.6
20180223070634 47 348 1.0 6.0 0.00 0.00 0.00 68 1022.5
20180223065733 47 350 1.0 7.0 0.00 0.00 0.00 68 1022.5
20180223064832 47 322 3.0 7.0 0.00 0.00 0.00 67 1022.2
20180223063931 47 4 0.0 3.0 0.00 0.00 0.00 68 1022.2
20180223063030 47 4 1.0 3.0 0.00 0.00 0.00 67 1022.2
20180223062129 47 349 1.0 6.0 0.00 0.00 0.00 67 1022.2
20180223061228 48 344 2.0 6.0 0.00 0.00 0.00 65 1022.2
20180223060328 48 2 3.0 7.0 0.00 0.00 0.00 63 1022.2
20180223055426 49 0 3.0 7.0 0.00 0.00 0.00 61 1022.2
20180223054525 49 348 2.0 5.0 0.00 0.00 0.00 59 1022.1
20180223053624 50 325 2.0 7.0 0.00 0.00 0.00 59 1022.1
20180223052723 50 334 2.0 7.0 0.00 0.00 0.00 59 1021.8
20180223051822 50 350 2.0 9.0 0.00 0.00 0.00 57 1021.8
20180223050921 50 327 4.0 9.0 0.00 0.00 0.00 55 1021.8
20180223050020 50 325 2.0 7.0 0.00 0.00 0.00 54 1021.4
20180223045119 50 313 2.0 8.0 0.00 0.00 0.00 50 1021.4
20180223044217 50 328 2.0 5.0 0.00 0.00 0.00 48 1021.0
20180223043317 50 323 1.0 3.0 0.00 0.00 0.00 48 1021.4
20180223042416 50 245 1.0 3.0 0.00 0.00 0.00 47 1021.0
20180223041515 50 230 2.0 4.0 0.00 0.00 0.00 47 1021.0
20180223040614 51 223 2.0 4.0 0.00 0.00 0.00 45 1021.0
20180223035712 51 12 1.0 2.0 0.00 0.00 0.00 45 1020.6
20180223034811 51 11 1.0 2.0 0.00 0.00 0.00 45 1020.6
20180223033910 50 320 1.0 2.0 0.00 0.00 0.00 45 1020.6
20180223033009 50 8 1.0 1.0 0.00 0.00 0.00 45 1020.5
20180223032107 51 7 0.0 2.0 0.00 0.00 0.00 44 1020.2
20180223031207 51 358 0.0 2.0 0.00 0.00 0.00 43 1020.2
20180223030306 51 359 1.0 2.0 0.00 0.00 0.00 43 1020.2
20180223025405 52 41 1.0 3.0 0.00 0.00 0.00 41 1020.2
20180223024504 52 37 0.0 4.0 0.00 0.00 0.00 41 1019.8
20180223023603 53 19 1.0 4.0 0.00 0.00 0.00 40 1019.8
20180223022702 53 26 1.0 5.0 0.00 0.00 0.00 40 1019.8
20180223021801 54 33 1.0 4.0 0.00 0.00 0.00 39 1019.8
20180223020900 55 19 2.0 4.0 0.00 0.00 0.00 39 1019.9
20180223015959 55 4 2.0 5.0 0.00 0.00 0.00 39 1019.9
20180223015059 56 26 2.0 6.0 0.00 0.00 0.00 38 1019.5
20180223014158 56 7 2.0 4.0 0.00 0.00 0.00 38 1019.9
20180223013257 57 357 2.0 5.0 0.00 0.00 0.00 38 1019.9
20180223012357 57 355 2.0 5.0 0.00 0.00 0.00 38 1019.9
20180223011455 57 356 2.0 4.0 0.00 0.00 0.00 37 1019.9
20180223010555 58 331 1.0 4.0 0.00 0.00 0.00 37 1019.9
20180223005654 58 15 1.0 4.0 0.00 0.00 0.00 36 1019.9
20180223004753 60 5 2.0 5.0 0.00 0.00 0.00 36 1020.0
20180223003852 60 337 1.0 5.0 0.00 0.00 0.00 35 1020.0
20180223002951 61 348 1.0 7.0 0.00 0.00 0.00 34 1020.0
20180223002051 60 340 2.0 7.0 0.00 0.00 0.00 36 1020.3
20180223001149 60 328 2.0 6.0 0.00 0.00 0.00 36 1020.3
20180223000248 61 332 2.0 9.0 0.00 0.00 0.00 36 1020.3
20180222235347 61 308 3.0 10.0 0.00 0.00 0.00 34 1020.3
20180222234446 61 315 5.0 10.0 0.00 0.00 0.00 34 1020.7
20180222233546 60 346 2.0 11.0 0.00 0.00 0.00 37 1020.7
20180222232645 61 309 4.0 11.0 0.00 0.00 0.00 36 1020.7
20180222231745 61 340 3.0 8.0 0.00 0.00 0.00 37 1020.7
20180222230843 61 323 4.0 10.0 0.00 0.00 0.00 37 1020.7
20180222225942 61 330 3.0 10.0 0.00 0.00 0.00 37 1020.7
20180222225041 61 335 2.0 10.0 0.00 0.00 0.00 36 1021.0
20180222224139 61 323 2.0 10.0 0.00 0.00 0.00 37 1021.0
20180222223238 61 330 4.0 9.0 0.00 0.00 0.00 34 1021.0
20180222222337 61 313 4.0 9.0 0.00 0.00 0.00 36 1021.0
20180222221436 61 323 3.0 7.0 0.00 0.00 0.00 37 1021.0
20180222220535 60 320 3.0 8.0 0.00 0.00 0.00 39 1021.4
20180222215634 59 329 3.0 8.0 0.00 0.00 0.00 39 1021.4
20180222214734 59 316 2.0 9.0 0.00 0.00 0.00 37 1021.4
20180222213833 59 339 4.0 9.0 0.00 0.00 0.00 37 1021.4
20180222212932 60 327 4.0 9.0 0.00 0.00 0.00 35 1021.4
20180222212031 60 333 2.0 9.0 0.00 0.00 0.00 35 1021.7
20180222211130 59 338 2.0 7.0 0.00 0.00 0.00 35 1021.7
20180222210230 59 328 2.0 10.0 0.00 0.00 0.00 33 1022.1
20180222205328 59 307 3.0 10.0 0.00 0.00 0.00 33 1022.1
20180222204428 59 345 5.0 10.0 0.00 0.00 0.00 32 1022.4
20180222203527 59 347 2.0 8.0 0.00 0.00 0.00 32 1022.7
20180222202626 59 339 2.0 4.0 0.00 0.00 0.00 31 1023.1
20180222201725 59 60 1.0 4.0 0.00 0.00 0.00 29 1023.1